Weather Service Report


072 
ASUS41 KALY 281810
RWRALY

NEW YORK STATE HOURLY WEATHER ROUNDUP
NATIONAL WEATHER SERVICE ALBANY NY
200 PM EDT THU AUG 28 2014

NOTE: "FAIR" INDICATES FEW OR NO CLOUDS BELOW 12,000 FEET WITH NO
SIGNIFICANT WEATHER AND/OR NO OBSTRUCTIONS TO VISIBILITY.

NYZ032-033-038>043-046>054-057>066-NYZ062>081-281900-
EAST

  
CITY           SKY/WX    TMP DP  RH WIND       PRES   REMARKS
ALBANY         PTSUNNY   73  54  51 W16       29.91S                  
GLENS FALLS    PTSUNNY   74  51  44 N13       29.90S                  
POUGHKEEPSIE   MOSUNNY   79  51  37 NW14G22   29.89S                  
NEWBURGH       MOSUNNY   75  50  41 NW16G24   29.92F                  
MONTGOMERY     PTSUNNY   75  50  41 NW13G22   29.91F                  
WHITE PLAINS   PTSUNNY   76  52  43 NW13      29.88S                  
ISLIP          PTSUNNY   78  56  46 NW14G25   29.85S                  
NEW YORK CITY  MOSUNNY   79  54  41 NW13      29.87F                  
CENTRAL PARK   MOSUNNY   80  52  37 VRB3G18   29.91S                  
$$

NYZ005>009-017-018-044>046-055-056-281900-
CENTRAL

  
CITY           SKY/WX    TMP DP  RH WIND       PRES   REMARKS
FULTON         PTSUNNY   70  51  51 W14       30.03S                  
SYRACUSE       PTSUNNY   67  51  56 W15       30.02R                  
ROME           PTSUNNY   67  54  63 NW15      29.99S                  
ELMIRA         MOSUNNY   70  52  52 W8G21     30.03F                  
BINGHAMTON     PTSUNNY   66  52  60 NW14      30.02F                  
MONTICELLO     CLOUDY    72  52  49 NW16G22   29.97F                  
$$

NYZ026>034-041>043-281900-
NORTH

  
CITY           SKY/WX    TMP DP  RH WIND       PRES   REMARKS
WATERTOWN      CLOUDY    68  52  56 NW9       30.00S                  
FORT DRUM      NOT AVBL                                               
MASSENA        CLOUDY    67  50  54 NW10      29.97R                  
SARANAC LAKE   PTSUNNY   63  47  55 MISG      29.96S                  
PLATTSBURGH    CLOUDY    68  49  50 N10       29.93R                  
$$

NYZ001>004-010>016-019>021-281900-
WEST

  
CITY           SKY/WX    TMP DP  RH WIND       PRES   REMARKS
NIAGARA FALLS  MOSUNNY   69  43  38 N10       30.10S                  
BUFFALO        MOSUNNY   70  43  37 N8G18     30.10S                  
DUNKIRK        MOSUNNY   68  49  50 W15       30.12F                  
JAMESTOWN      PTSUNNY   63  48  59 NW9G16    30.13S                  
WELLSVILLE     MOSUNNY   67  47  48 NW14G23   30.11F                  
ROCHESTER      MOSUNNY   68  47  46 N14G22    30.07S                  
PENN YAN       PTSUNNY   67  47  48 NW13G21   30.06S                  
$$

             KEY
       WCI = WIND CHILL INDEX
       VSB = VISIBILITY
       HX  = HEAT INDEX
$$

Return to Home page


Western Regional Climate Center, wrcc@dri.edu